Total_Precipitation_Accumulation
1.12 0.99 0.99 0.70 0.50 0.50 0.42 0.39 0.33 0.33 0.26 0.22 0.33 0.42 0.42 0.43 0.45 0.55 0.55 0.58 0.48 0.31 0.31 0.31 0.38 0.46 0.46 0.64 0.80 0.80 0.68 0.58 0.68 0.64 0.64 0.62 0.59 0.60 0.60 0.58 0.57 0.46 0.46 0.40 0.37 0.37 0.32 0.27 0.25 0.25 0.29 0.27 0.25 0.20 0.20 0.17 0.15 0.17 0.17 0.18 0.15 0.08 0.08 0.01 -0.01 -0.01 -0.04 -0.11 -0.15
0.91 1.04 1.04 0.72 0.74 0.74 0.66 0.58 0.50 0.50 0.28 0.25 0.21 0.28 0.28 0.52 0.81 0.84 0.84 0.82 0.74 0.51 0.51 0.37 0.42 0.51 0.51 0.68 0.94 0.94 0.93 0.98 0.90 0.75 0.75 0.63 0.60 0.54 0.54 0.51 0.54 0.52 0.52 0.44 0.40 0.40 0.34 0.31 0.29 0.29 0.27 0.25 0.24 0.23 0.23 0.20 0.20 0.15 0.15 0.13 0.19 0.09 0.09 0.10 0.07 0.07 0.08 0.08 -0.02
0.47 0.68 0.68 0.77 0.87 0.87 0.90 0.76 0.57 0.57 0.36 0.37 0.29 0.27 0.27 0.46 1.03 0.90 0.90 0.85 0.79 0.67 0.67 0.58 0.61 0.67 0.67 0.71 0.79 0.79 0.93 1.00 0.96 0.80 0.80 0.59 0.56 0.48 0.48 0.43 0.39 0.44 0.44 0.43 0.36 0.36 0.32 0.29 0.33 0.33 0.27 0.24 0.21 0.19 0.19 0.14 0.14 0.20 0.20 0.23 0.12 0.07 0.07 0.09 0.12 0.12 0.17 0.18 0.06
0.32 0.35 0.35 0.66 0.87 0.87 0.97 0.89 0.58 0.58 0.44 0.46 0.45 0.38 0.38 0.46 0.93 0.99 0.99 0.91 0.80 0.72 0.72 0.67 0.73 0.77 0.77 0.75 0.67 0.67 0.76 0.77 0.80 0.78 0.78 0.70 0.53 0.51 0.51 0.45 0.38 0.34 0.34 0.36 0.36 0.36 0.33 0.42 0.43 0.43 0.31 0.20 0.13 0.09 0.09 0.07 0.07 0.08 0.08 0.03 0.03 0.03 0.03 0.04 0.11 0.11 0.20 0.25 0.23
0.42 0.35 0.35 0.68 1.07 1.07 1.24 1.09 0.73 0.73 0.33 0.37 0.45 0.51 0.51 0.58 0.73 0.85 0.85 0.97 0.96 0.75 0.75 0.59 0.65 0.63 0.63 0.55 0.64 0.64 0.62 0.64 0.62 0.65 0.65 0.67 0.54 0.52 0.52 0.50 0.50 0.45 0.45 0.35 0.39 0.39 0.41 0.46 0.43 0.43 0.27 0.17 0.09 0.05 0.05 0.04 0.02 0.02 0.02 0.01 0.01 0.01 0.01 0.01 0.04 0.04 0.13 0.23 0.16
1.07 0.84 0.84 0.56 0.72 0.72 1.11 1.36 0.90 0.90 0.26 0.25 0.29 0.38 0.38 0.47 0.59 0.76 0.76 0.91 0.96 0.92 0.92 0.61 0.50 0.65 0.65 0.61 0.64 0.64 0.63 0.57 0.54 0.56 0.56 0.56 0.57 0.54 0.54 0.55 0.57 0.60 0.60 0.58 0.48 0.48 0.45 0.41 0.39 0.39 0.38 0.22 0.11 0.06 0.06 0.04 0.03 0.01 0.01 0.02 0.01 0.01 0.01 0.01 0.01 0.01 0.04 0.11 0.07
1.24 1.14 1.14 0.74 0.50 0.50 0.42 0.55 0.65 0.65 0.18 0.11 0.14 0.19 0.19 0.27 0.59 0.74 0.74 0.84 0.98 1.16 1.16 0.88 1.01 0.88 0.88 0.81 0.77 0.77 0.72 0.60 0.54 0.50 0.50 0.52 0.54 0.58 0.58 0.57 0.56 0.54 0.54 0.54 0.50 0.50 0.40 0.38 0.38 0.38 0.32 0.29 0.20 0.10 0.10 0.07 0.05 0.07 0.07 0.08 0.04 0.03 0.03 0.03 0.02 0.02 0.03 0.04 0.05
1.00 1.01 1.01 0.84 0.73 0.73 0.62 0.53 0.32 0.32 0.30 0.26 0.19 0.20 0.20 0.25 0.61 0.80 0.80 0.99 1.21 1.26 1.26 1.19 1.00 0.94 0.94 0.84 0.74 0.74 0.74 0.67 0.64 0.58 0.58 0.54 0.54 0.54 0.54 0.56 0.53 0.49 0.49 0.46 0.41 0.41 0.28 0.28 0.29 0.29 0.27 0.24 0.23 0.17 0.17 0.10 0.08 0.08 0.08 0.17 0.16 0.11 0.11 0.08 0.06 0.06 0.05 0.05 0.07
0.83 0.80 0.80 0.72 0.64 0.64 0.64 0.82 0.82 0.82 0.29 0.35 0.44 0.44 0.44 0.46 0.71 0.89 0.89 1.11 1.05 1.06 1.06 1.02 0.89 0.88 0.88 0.87 0.80 0.80 0.73 0.67 0.67 0.65 0.65 0.63 0.57 0.52 0.52 0.49 0.46 0.44 0.44 0.41 0.36 0.36 0.28 0.24 0.22 0.22 0.19 0.16 0.16 0.14 0.14 0.11 0.09 0.09 0.09 0.10 0.21 0.21 0.21 0.16 0.11 0.11 0.09 0.11 0.10
0.57 0.49 0.49 0.45 0.44 0.44 0.46 0.70 0.90 0.90 0.53 0.38 0.35 0.44 0.44 0.54 0.47 0.60 0.60 0.80 0.90 1.01 1.01 0.92 0.84 0.86 0.86 0.78 0.77 0.77 0.72 0.62 0.63 0.63 0.63 0.62 0.59 0.51 0.51 0.43 0.40 0.41 0.41 0.38 0.34 0.34 0.29 0.25 0.20 0.20 0.16 0.13 0.11 0.10 0.10 0.11 0.09 0.09 0.09 0.07 0.11 0.19 0.19 0.19 0.15 0.15 0.11 0.11 0.12
0.31 0.07 0.07 0.05 0.08 0.08 0.17 0.37 0.52 0.52 0.48 0.42 0.32 0.24 0.24 0.20 0.20 0.24 0.24 0.34 0.52 0.65 0.65 0.73 0.80 0.79 0.79 0.82 0.81 0.81 0.73 0.66 0.53 0.57 0.57 0.59 0.58 0.49 0.49 0.40 0.37 0.37 0.37 0.32 0.31 0.31 0.33 0.28 0.21 0.21 0.16 0.11 0.09 0.09 0.09 0.09 0.12 0.11 0.11 0.09 0.10 0.12 0.12 0.13 0.12 0.12 0.11 0.12 0.13
0.19 -0.10 -0.10 -0.11 -0.02 -0.02 0.08 0.20 0.35 0.35 0.40 0.36 0.30 0.22 0.22 0.14 0.11 0.12 0.12 0.17 0.29 0.37 0.37 0.42 0.53 0.60 0.60 0.68 0.73 0.73 0.74 0.72 0.52 0.45 0.45 0.44 0.44 0.44 0.44 0.41 0.36 0.33 0.33 0.30 0.28 0.28 0.27 0.27 0.24 0.24 0.21 0.20 0.18 0.17 0.17 0.13 0.16 0.15 0.15 0.14 0.13 0.13 0.13 0.13 0.14 0.14 0.13 0.14 0.14
0.29 -0.00 -0.00 -0.02 0.01 0.01 0.09 0.15 0.23 0.23 0.37 0.33 0.31 0.23 0.23 0.11 0.09 0.10 0.10 0.16 0.21 0.27 0.27 0.41 0.56 0.54 0.54 0.49 0.45 0.45 0.48 0.56 0.57 0.49 0.49 0.44 0.41 0.39 0.39 0.36 0.30 0.27 0.27 0.27 0.28 0.28 0.24 0.25 0.30 0.30 0.32 0.28 0.28 0.28 0.28 0.26 0.21 0.19 0.19 0.18 0.16 0.16 0.16 0.15 0.17 0.17 0.17 0.17 0.17
0.30 0.12 0.12 0.14 0.15 0.15 0.17 0.19 0.22 0.22 0.32 0.33 0.29 0.22 0.22 0.12 0.04 -0.01 -0.01 0.04 0.13 0.27 0.27 0.45 0.60 0.63 0.63 0.52 0.41 0.41 0.33 0.31 0.33 0.47 0.47 0.46 0.42 0.41 0.41 0.39 0.29 0.25 0.25 0.25 0.25 0.25 0.24 0.23 0.24 0.24 0.33 0.34 0.30 0.29 0.29 0.26 0.23 0.19 0.19 0.18 0.18 0.17 0.17 0.17 0.17 0.17 0.17 0.17 0.16
0.15 0.13 0.13 0.16 0.18 0.18 0.18 0.17 0.19 0.19 0.25 0.23 0.24 0.19 0.19 0.08 -0.02 -0.07 -0.07 -0.00 0.10 0.24 0.24 0.42 0.63 0.69 0.69 0.63 0.53 0.53 0.39 0.31 0.25 0.28 0.28 0.32 0.35 0.37 0.37 0.37 0.30 0.25 0.25 0.22 0.22 0.22 0.21 0.21 0.23 0.23 0.30 0.33 0.32 0.28 0.28 0.26 0.24 0.21 0.21 0.19 0.18 0.18 0.18 0.17 0.16 0.16 0.15 0.12 0.11
-0.07 -0.03 -0.03 0.05 0.08 0.08 0.05 0.04 0.04 0.04 0.14 0.17 0.13 0.06 0.06 0.00 -0.04 -0.01 -0.01 0.07 0.18 0.30 0.30 0.43 0.56 0.68 0.68 0.65 0.59 0.59 0.51 0.40 0.31 0.23 0.23 0.23 0.23 0.26 0.26 0.20 0.22 0.23 0.23 0.22 0.22 0.22 0.22 0.22 0.22 0.22 0.25 0.31 0.29 0.22 0.22 0.23 0.22 0.22 0.22 0.18 0.17 0.16 0.16 0.16 0.17 0.17 0.15 0.12 0.07
-0.20 -0.19 -0.19 -0.16 -0.16 -0.16 -0.15 -0.13 -0.13 -0.13 -0.02 -0.03 -0.05 -0.10 -0.10 -0.11 -0.04 0.07 0.07 0.15 0.25 0.36 0.36 0.45 0.51 0.62 0.62 0.63 0.58 0.58 0.54 0.47 0.37 0.28 0.28 0.21 0.20 0.19 0.19 0.19 0.18 0.17 0.17 0.21 0.21 0.21 0.23 0.23 0.22 0.22 0.22 0.25 0.23 0.19 0.19 0.18 0.18 0.17 0.17 0.17 0.15 0.16 0.16 0.17 0.15 0.15 0.13 0.12 0.11
-0.35 -0.31 -0.31 -0.28 -0.34 -0.34 -0.39 -0.44 -0.47 -0.47 -0.37 -0.35 -0.31 -0.26 -0.26 -0.12 -0.02 0.19 0.19 0.26 0.28 0.33 0.33 0.37 0.41 0.39 0.39 0.38 0.40 0.40 0.40 0.39 0.39 0.35 0.35 0.27 0.25 0.21 0.21 0.21 0.19 0.19 0.19 0.19 0.15 0.15 0.15 0.16 0.17 0.17 0.16 0.17 0.14 0.18 0.18 0.18 0.17 0.15 0.15 0.14 0.12 0.11 0.11 0.10 0.07 0.07 0.06 0.05 0.05
-0.32 -0.33 -0.33 -0.34 -0.35 -0.35 -0.35 -0.39 -0.39 -0.39 -0.37 -0.29 -0.23 -0.15 -0.15 -0.03 0.11 0.34 0.34 0.36 0.30 0.27 0.27 0.28 0.28 0.29 0.29 0.31 0.30 0.30 0.29 0.27 0.25 0.22 0.22 0.19 0.12 0.13 0.13 0.15 0.16 0.16 0.16 0.16 0.16 0.16 0.13 0.14 0.14 0.14 0.13 0.13 0.12 0.12 0.12 0.14 0.14 0.13 0.13 0.12 0.11 0.10 0.10 0.07 0.05 0.05 0.05 0.03 0.02
-0.24 -0.26 -0.26 -0.31 -0.30 -0.30 -0.26 -0.26 -0.28 -0.28 -0.18 -0.11 -0.06 0.00 0.00 0.10 0.20 0.35 0.35 0.34 0.30 0.26 0.26 0.25 0.27 0.32 0.32 0.27 0.26 0.26 0.23 0.20 0.18 0.16 0.16 0.13 0.11 0.11 0.11 0.11 0.12 0.14 0.14 0.13 0.14 0.14 0.14 0.13 0.13 0.13 0.13 0.13 0.11 0.11 0.11 0.12 0.12 0.12 0.12 0.11 0.09 0.08 0.08 0.06 0.05 0.05 0.04 0.02 0.00
-0.18 -0.20 -0.20 -0.27 -0.26 -0.26 -0.21 -0.15 -0.11 -0.11 -0.00 0.02 0.04 0.06 0.06 0.09 0.13 0.16 0.16 0.20 0.23 0.27 0.27 0.30 0.30 0.29 0.29 0.29 0.23 0.23 0.20 0.16 0.14 0.14 0.14 0.14 0.13 0.11 0.11 0.10 0.11 0.12 0.12 0.13 0.14 0.14 0.13 0.13 0.13 0.13 0.12 0.11 0.10 0.09 0.09 0.09 0.10 0.10 0.10 0.09 0.08 0.07 0.07 0.06 0.05 0.05 0.04 0.01 -0.01
-0.09 -0.11 -0.11 -0.12 -0.14 -0.14 -0.11 -0.05 -0.00 -0.00 0.06 0.08 0.08 0.08 0.08 0.11 0.12 0.13 0.13 0.12 0.15 0.19 0.19 0.21 0.24 0.27 0.27 0.29 0.23 0.23 0.21 0.19 0.16 0.15 0.15 0.14 0.14 0.12 0.12 0.12 0.12 0.12 0.12 0.13 0.14 0.14 0.14 0.14 0.13 0.13 0.12 0.12 0.10 0.08 0.08 0.07 0.07 0.07 0.07 0.07 0.06 0.06 0.06 0.05 0.03 0.03 0.02 0.00 -0.01
0.06 0.07 0.07 0.07 0.06 0.06 0.07 0.07 0.07 0.07 0.09 0.09 0.09 0.09 0.09 0.11 0.11 0.11 0.11 0.10 0.11 0.13 0.13 0.17 0.16 0.17 0.17 0.23 0.23 0.23 0.23 0.22 0.21 0.18 0.18 0.15 0.15 0.15 0.15 0.14 0.14 0.13 0.13 0.12 0.12 0.12 0.12 0.14 0.13 0.13 0.13 0.12 0.10 0.08 0.08 0.07 0.06 0.06 0.06 0.06 0.06 0.03 0.03 0.02 0.01 0.01 -0.01 -0.02 -0.02
0.19 0.18 0.18 0.17 0.17 0.17 0.15 0.13 0.10 0.10 0.11 0.11 0.10 0.10 0.10 0.12 0.12 0.11 0.11 0.08 0.08 0.10 0.10 0.14 0.15 0.12 0.12 0.16 0.23 0.23 0.23 0.17 0.16 0.14 0.14 0.15 0.14 0.14 0.14 0.16 0.15 0.13 0.13 0.11 0.10 0.10 0.10 0.11 0.12 0.12 0.13 0.12 0.11 0.08 0.08 0.06 0.05 0.05 0.05 0.05 0.04 0.00 0.00 -0.00 -0.01 -0.01 -0.01 -0.01 -0.01
0.20 0.21 0.21 0.23 0.19 0.19 0.14 0.13 0.12 0.12 0.13 0.11 0.11 0.11 0.11 0.11 0.10 0.10 0.10 0.07 0.06 0.07 0.07 0.09 0.13 0.12 0.12 0.12 0.15 0.15 0.14 0.14 0.13 0.13 0.13 0.13 0.13 0.13 0.13 0.13 0.15 0.14 0.14 0.12 0.11 0.11 0.10 0.10 0.11 0.11 0.09 0.10 0.09 0.08 0.08 0.06 0.05 0.04 0.04 0.03 0.02 -0.01 -0.01 -0.01 -0.01 -0.01 -0.01 -0.01 -0.01
0.18 0.20 0.20 0.23 0.23 0.23 0.19 0.13 0.11 0.11 0.12 0.14 0.13 0.12 0.12 0.11 0.09 0.08 0.08 0.07 0.06 0.07 0.07 0.11 0.16 0.15 0.15 0.12 0.12 0.12 0.13 0.13 0.13 0.13 0.13 0.12 0.12 0.12 0.12 0.13 0.15 0.14 0.14 0.14 0.12 0.12 0.11 0.09 0.08 0.08 0.06 0.06 0.07 0.07 0.07 0.06 0.04 0.03 0.03 0.01 0.00 -0.01 -0.01 -0.01 -0.01 -0.01 -0.02 -0.02 -0.02
0.20 0.20 0.20 0.19 0.24 0.24 0.22 0.15 0.13 0.13 0.12 0.13 0.11 0.10 0.10 0.10 0.10 0.11 0.11 0.08 0.07 0.07 0.07 0.11 0.15 0.13 0.13 0.10 0.10 0.10 0.09 0.11 0.10 0.11 0.11 0.10 0.11 0.11 0.11 0.11 0.12 0.15 0.15 0.14 0.12 0.12 0.10 0.09 0.06 0.06 0.04 0.03 0.03 0.03 0.03 0.04 0.04 0.02 0.02 0.01 0.00 -0.00 -0.00 -0.02 -0.02 -0.02 -0.02 -0.02 -0.02
0.23 0.22 0.22 0.20 0.23 0.23 0.23 0.15 0.15 0.15 0.13 0.12 0.11 0.11 0.11 0.11 0.13 0.12 0.12 0.10 0.07 0.07 0.07 0.08 0.09 0.08 0.08 0.09 0.08 0.08 0.07 0.08 0.07 0.07 0.07 0.08 0.09 0.09 0.09 0.10 0.11 0.12 0.12 0.13 0.11 0.11 0.09 0.04 0.03 0.03 0.02 0.00 -0.01 -0.01 -0.01 0.00 0.01 0.01 0.01 0.01 0.01 -0.01 -0.01 -0.02 -0.03 -0.03 -0.03 -0.03 -0.03
0.25 0.24 0.24 0.22 0.20 0.20 0.18 0.19 0.14 0.14 0.14 0.12 0.13 0.13 0.13 0.13 0.12 0.10 0.10 0.09 0.07 0.06 0.06 0.06 0.05 0.06 0.06 0.06 0.05 0.05 0.05 0.05 0.05 0.05 0.05 0.05 0.06 0.07 0.07 0.08 0.08 0.08 0.08 0.08 0.07 0.07 0.05 0.00 -0.00 -0.00 -0.01 -0.01 -0.01 -0.02 -0.02 -0.01 0.00 0.01 0.01 0.01 0.00 -0.01 -0.01 -0.01 -0.02 -0.02 -0.02 -0.03 -0.03
0.28 0.24 0.24 0.22 0.19 0.19 0.18 0.20 0.11 0.11 0.11 0.12 0.13 0.14 0.14 0.13 0.10 0.09 0.09 0.09 0.08 0.05 0.05 0.04 0.04 0.04 0.04 0.04 0.05 0.05 0.05 0.05 0.04 0.04 0.04 0.04 0.05 0.05 0.05 0.05 0.05 0.04 0.04 0.04 0.02 0.02 -0.02 -0.02 -0.02 -0.02 -0.01 -0.01 -0.01 -0.01 -0.01 -0.01 -0.01 -0.00 -0.00 -0.01 -0.01 -0.01 -0.01 -0.01 -0.02 -0.02 -0.02 -0.02 -0.02
0.20 0.23 0.23 0.25 0.20 0.20 0.19 0.17 0.12 0.12 0.10 0.10 0.10 0.11 0.11 0.11 0.10 0.09 0.09 0.07 0.06 0.05 0.05 0.04 0.03 0.04 0.04 0.04 0.04 0.04 0.04 0.04 0.03 0.03 0.03 0.04 0.04 0.04 0.04 0.03 0.03 0.02 0.02 0.01 0.00 0.00 -0.02 -0.02 -0.01 -0.01 -0.01 -0.01 -0.01 -0.01 -0.01 -0.01 -0.01 -0.01 -0.01 -0.01 -0.01 -0.01 -0.01 -0.01 -0.02 -0.02 -0.02 -0.02 -0.02
0.08 0.12 0.12 0.22 0.29 0.29 0.29 0.21 0.15 0.15 0.10 0.08 0.07 0.07 0.07 0.06 0.06 0.06 0.06 0.06 0.06 0.05 0.05 0.04 0.04 0.04 0.04 0.04 0.04 0.04 0.03 0.03 0.02 0.02 0.02 0.03 0.03 0.02 0.02 0.02 0.01 0.00 0.00 -0.00 -0.01 -0.01 -0.02 -0.01 -0.01 -0.01 -0.01 -0.01 -0.01 -0.01 -0.01 -0.01 -0.01 -0.01 -0.01 -0.01 -0.01 -0.01 -0.01 -0.01 -0.02 -0.02 -0.02 -0.02 -0.02
0.05 0.05 0.05 0.04 0.06 0.06 0.20 0.30 0.16 0.16 0.10 0.07 0.08 0.09 0.09 0.09 0.09 0.08 0.08 0.08 0.07 0.05 0.05 0.04 0.04 0.04 0.04 0.03 0.03 0.03 0.02 0.02 0.01 0.01 0.01 0.01 0.00 0.00 0.00 0.00 0.00 -0.00 -0.00 -0.00 -0.01 -0.01 -0.01 -0.01 -0.01 -0.01 -0.01 -0.01 -0.01 -0.01 -0.01 -0.01 -0.01 -0.01 -0.01 -0.01 -0.01 -0.01 -0.01 -0.01 -0.01 -0.01 -0.02 -0.02 -0.02
0.03 0.02 0.02 0.01 0.01 0.01 0.00 0.06 0.19 0.19 0.13 0.08 0.07 0.07 0.07 0.09 0.10 0.10 0.10 0.09 0.08 0.05 0.05 0.04 0.03 0.03 0.03 0.02 0.02 0.02 0.01 0.01 0.01 0.00 0.00 -0.01 -0.01 -0.01 -0.01 -0.01 -0.00 -0.00 -0.00 -0.00 -0.02 -0.02 -0.02 -0.02 -0.01 -0.01 -0.01 -0.01 -0.01 -0.01 -0.01 -0.02 -0.02 -0.02 -0.02 -0.01 -0.01 -0.01 -0.01 -0.01 -0.01 -0.01 -0.01 -0.02 -0.02
0.02 0.02 0.02 0.01 0.01 0.01 -0.00 -0.00 0.06 0.06 0.05 0.04 0.04 0.05 0.05 0.06 0.07 0.08 0.08 0.09 0.08 0.06 0.06 0.04 0.02 0.02 0.02 0.01 0.01 0.01 0.01 0.00 0.00 -0.00 -0.00 -0.01 -0.01 -0.01 -0.01 -0.01 -0.00 0.00 0.00 -0.01 -0.02 -0.02 -0.03 -0.02 -0.01 -0.01 -0.01 -0.01 -0.01 -0.01 -0.01 -0.02 -0.02 -0.02 -0.02 -0.01 -0.01 -0.01 -0.01 -0.01 -0.01 -0.01 -0.01 -0.01 -0.01
0.02 0.02 0.02 0.01 0.00 0.00 0.00 -0.00 0.00 0.00 0.01 0.01 0.02 0.03 0.03 0.04 0.05 0.06 0.06 0.07 0.08 0.07 0.07 0.05 0.03 0.01 0.01 0.00 -0.00 -0.00 -0.00 -0.00 -0.00 -0.00 -0.00 -0.01 -0.01 -0.01 -0.01 -0.00 0.00 0.00 0.00 -0.01 -0.02 -0.02 -0.02 -0.01 -0.01 -0.01 -0.01 -0.01 -0.01 -0.02 -0.02 -0.02 -0.02 -0.02 -0.02 -0.01 -0.01 -0.01 -0.01 -0.01 -0.01 -0.01 -0.01 -0.01 -0.01
0.00 0.01 0.01 0.01 0.01 0.01 0.00 -0.00 -0.00 -0.00 -0.00 0.00 0.01 0.01 0.01 0.02 0.02 0.02 0.02 0.02 0.04 0.05 0.05 0.03 0.02 0.01 0.01 0.00 -0.00 -0.00 -0.00 -0.00 -0.00 -0.01 -0.01 -0.01 -0.01 -0.00 -0.00 -0.00 0.00 -0.00 -0.00 -0.01 -0.01 -0.01 -0.01 -0.01 -0.01 -0.01 -0.00 -0.00 -0.00 -0.01 -0.01 -0.02 -0.02 -0.01 -0.01 -0.01 -0.01 -0.01 -0.01 -0.01 -0.01 -0.01 -0.01 -0.01 -0.01
0.00 0.00 0.00 0.00 0.00 0.00 0.00 -0.00 -0.00 -0.00 -0.00 -0.00 -0.00 0.00 0.00 0.00 0.01 0.01 0.01 0.00 0.01 0.01 0.01 0.01 0.01 0.00 0.00 -0.00 -0.00 -0.00 -0.00 -0.01 -0.01 -0.00 -0.00 -0.01 -0.01 -0.00 -0.00 -0.00 -0.00 0.00 0.00 0.00 -0.00 -0.00 -0.01 -0.01 -0.01 -0.01 -0.00 -0.00 -0.01 -0.01 -0.01 -0.01 -0.01 -0.01 -0.01 -0.01 -0.01 -0.00 -0.00 -0.00 -0.01 -0.01 -0.01 -0.01 -0.01
0.00 0.00 0.00 0.00 0.00 0.00 0.00 -0.00 -0.00 -0.00 -0.00 -0.01 -0.01 -0.01 -0.01 -0.00 -0.00 0.00 0.00 0.00 0.00 0.00 0.00 0.00 0.00 0.00 0.00 0.00 0.00 0.00 -0.00 -0.00 -0.01 -0.01 -0.01 -0.00 -0.00 -0.00 -0.00 -0.01 -0.00 0.00 0.00 0.00 -0.00 -0.00 -0.01 -0.01 -0.00 -0.00 -0.00 -0.00 -0.01 -0.01 -0.01 -0.01 -0.01 -0.01 -0.01 -0.01 -0.01 -0.00 -0.00 -0.00 -0.00 -0.00 -0.01 -0.01 -0.01
0.00 -0.00 -0.00 -0.00 0.00 0.00 0.00 -0.00 -0.00 -0.00 -0.00 -0.00 -0.01 -0.01 -0.01 -0.01 -0.00 -0.00 -0.00 -0.00 0.00 0.00 0.00 0.00 0.00 0.00 0.00 0.00 0.00 0.00 -0.00 -0.00 -0.00 -0.01 -0.01 -0.00 -0.00 -0.01 -0.01 -0.00 -0.00 0.00 0.00 0.00 -0.00 -0.00 -0.00 -0.00 -0.00 -0.00 -0.00 -0.00 -0.01 -0.01 -0.01 -0.01 -0.01 -0.01 -0.01 -0.01 -0.01 -0.01 -0.01 -0.00 -0.01 -0.01 -0.01 -0.01 -0.01
0.00 0.00 0.00 -0.00 -0.00 -0.00 -0.00 -0.00 -0.00 -0.00 -0.00 -0.00 0.00 -0.00 -0.00 -0.01 -0.01 -0.01 -0.01 -0.00 -0.00 0.00 0.00 -0.00 0.00 0.01 0.01 0.00 0.00 0.00 0.00 0.00 -0.00 -0.00 -0.00 0.00 0.00 -0.00 -0.00 -0.00 -0.00 0.00 0.00 0.00 0.00 0.00 -0.00 -0.00 0.00 0.00 -0.00 -0.00 -0.01 -0.00 -0.00 -0.01 -0.01 -0.01 -0.01 -0.01 -0.01 -0.01 -0.01 -0.01 -0.01 -0.01 -0.01 -0.01 -0.01